Regional Weather Roundup
Issued by NWS

Home | Current Version | Previous Version | Text Only | Print | Product List | Glossary Off
Versions: 1 2 3 4 5 6 7 8 9 10 11 12 13 14 15 16 17 18 19 20 21 22 23 24 25 26 27 28 29 30 31 32 33 34 35 36 37 38 39 40 41 42 43 44 45 46 47 48 49 50

000
ASUS43 KMPX 171910
RWRMN
WEATHER ROUNDUP FOR MINNESOTA
NATIONAL WEATHER SERVICE TWIN CITIES/CHANHASSEN MN
200 PM CDT FRI APR 17 2015


NOTE: "FAIR" INDICATES FEW OR NO CLOUDS BELOW 12,000 FEET WITH NO
SIGNIFICANT WEATHER AND/OR OBSTRUCTIONS TO VISIBILITY. N/A MEANS
CURRENT SKY AND/OR WEATHER CONDITIONS ARE NOT AVAILABLE.

MNZ060>063-068>070-172000-
   Twin Cities Metro

CITY           SKY/WX    TMP DP  RH WIND       PRES   REMARKS
TWIN CITIES    MOSUNNY   72  43  35 N5        30.05F
ST PAUL        SUNNY     73  42  32 MISG      30.05F
CRYSTAL        SUNNY     71  38  29 CALM      30.04F
BLAINE         SUNNY     72  36  26 N7        30.05F
LAKEVILLE      SUNNY     72  45  37 NW6       30.05F
EDEN PRAIRIE   SUNNY     72  43  35 VRB5      30.05F
SOUTH ST PAUL  SUNNY     72  42  33 N3        30.05F
LAKE ELMO      FAIR      72  45  37 N6        30.05F
$$
MNZ001>005-007-008-013>017-022>024-027-028-172000-
   Northwest Minnesota

CITY           SKY/WX    TMP DP  RH WIND       PRES   REMARKS
BEMIDJI        SUNNY     68  26  20 W18G25    30.06S
HALLOCK        SUNNY     75   9   7 NW22G35   29.99S
ROSEAU         SUNNY     73  19  13 W17G26    29.96F
WARROAD        SUNNY     72  32  23 W21G35    29.96F
THIEF RVR FALL SUNNY     70  21  16 W17G28    30.03F
CROOKSTON      SUNNY     73  19  13 NW17G29   30.04F
FOSSTON        SUNNY     68  21  17 W14G26    30.07F
DETROIT LAKES  SUNNY     66  23  19 W12       30.09F
MOORHEAD       SUNNY     72  19  14 W17       30.08F
PARK RAPIDS    SUNNY     71  22  15 NW10G22   30.06F
MAHNOMEN       FAIR      68  23  18 W17       30.07F
$$
MNZ006-009>011-018-025>026-172000-
   North Central Minnesota

CITY           SKY/WX    TMP DP  RH WIND       PRES   REMARKS
BAUDETTE       SUNNY     69  24  18 W17G35    29.97F
FLAG ISLAND    SUNNY     64  25  22 W24G31    29.91F
INTL FALLS     SUNNY     67  27  22 SW21G29   29.98F
WASKISH        SUNNY     63  32  31 SW16      30.03F
BIG FORK       SUNNY     70  21  16 SW12G22   30.02F
LONGVILLE      SUNNY     68  19  15 SW10      30.05F
GRAND RAPIDS   SUNNY     66  25  20 W13G20    30.05F
ORR            SUNNY     68  16  13 W9G22     29.99F
COOK           SUNNY     66  25  20 W16G23    30.02F
WALKER         FAIR      68  21  16 W10G21    30.05F
$$
MNZ012-019>021-037-172000-
   Northeast Minnesota

CITY           SKY/WX    TMP DP  RH WIND       PRES   REMARKS
DULUTH         SUNNY     69  25  19 W10G17    30.02F
ELY            SUNNY     66  21  18 W16G23    30.00F
HIBBING        SUNNY     68  20  16 W12G21    30.03F
EVELETH        SUNNY     68  23  18 SW17G24   30.03F
DULUTH HARBOR  SUNNY     52  39  62 E9        30.03F
TWO HARBORS    SUNNY     68  39  34 SW12      30.01F
SILVER BAY     SUNNY     66  30  26 S13G18    30.00F
GRAND MARAIS     N/A     41  35  79 SW8       30.03F
G MARAIS ARPRT SUNNY     59  25  27 S9        30.02F
$$
MNZ029>031-032-039>041-046>048-054>057-064-172000-
   West Central Minnesota

CITY           SKY/WX    TMP DP  RH WIND       PRES   REMARKS
FERGUS FALLS   SUNNY     68  12  11 NW10G17   30.09F
WHEATON        SUNNY     66  23  19 NW8       30.11F
MORRIS         SUNNY     72  19  14 N3        30.08F
ALEXANDRIA     SUNNY     67  20  16 NW6       30.10F
ELBOW LAKE     FAIR      67  23  19 N5        30.09F
WADENA         SUNNY     66  28  24 SW5       30.07F
GLENWOOD       SUNNY     68  19  15 W6        30.09F
APPLETON       SUNNY     72  12  10 N3        30.09F
BENSON         SUNNY     72  21  15 N6        30.09F
ORTONVILLE     SUNNY     70  18  13 N5        30.11S
MADISON        SUNNY     70  18  13 N6        30.10F
WILLMAR        FAIR      70  32  24 CALM      30.09F
$$
MNZ033>034-036-042>043-049>051-058-059-172000-
   Central Minnesota

CITY           SKY/WX    TMP DP  RH WIND       PRES   REMARKS
ST CLOUD       SUNNY     69  29  22 CALM      30.06F
SAUK CENTRE    FAIR      67  26  21 N7        30.08F
PAYNESVILLE    SUNNY     66  30  25 SW6       30.08F
AITKIN         SUNNY     72   3   7 W7        30.03F
PINE RIVER     SUNNY     70  30  23 SW9G17    30.08F
BRAINERD       SUNNY     68  23  18 NW12      30.06F
STAPLES        SUNNY     68  23  18 W7G17     30.07F
LONG PRAIRIE   FAIR      66  28  24 W9        30.08F
LITTLE FALLS   SUNNY     68  23  18 W6        30.07F
LITCHFIELD     SUNNY     70  34  26 MISG      30.08
BUFFALO        SUNNY     69  32  25 W3        30.07F
MAPLE LAKE     SUNNY     70  35  27 SW6       30.07F
$$
MNZ037-044-045-052-053-172000-
   East Central Minnesota

CITY           SKY/WX    TMP DP  RH WIND       PRES   REMARKS
PRINCETON      SUNNY     72  36  26 SW7       30.06F
MORA           SUNNY     68  19  15 CALM      30.06F
CAMBRIDGE      SUNNY     72  46  40 W6        30.03F
RUSH CITY      SUNNY     69  29  22 CALM      30.05F
MOOSE LAKE     SUNNY     70  30  23 CALM      30.02F
HINCKLEY       FAIR      70  27  19 W7        30.05F
CLOQUET        SUNNY     68  12  11 W14       30.03F
MCGREGOR       SUNNY     68  27  21 CALM      30.05F
$$
MNZ071>073-080-081-089-090-097-098-172000-
   Southwest Minnesota

CITY           SKY/WX    TMP DP  RH WIND       PRES   REMARKS
MONTEVIDEO     SUNNY     73  30  20 NE9       30.10S
GRANITE FALLS  SUNNY     71  33  24 W8        30.10F
CANBY          SUNNY     69  23  17 NW6       30.12S
MARSHALL       SUNNY     70  32  24 N5        30.09F
REDWOOD FALLS  SUNNY     72  37  28 NW9       30.07F
OLIVIA         SUNNY     68  34  28 N5        30.07S
PIPESTONE      SUNNY     72  37  28 CALM      30.09F
WINDOM         SUNNY     73  39  29 W5        30.08F
WORTHINGTON    SUNNY     72  45  37 N5        30.09F
JACKSON        SUNNY     73  37  27 NW9       30.09F
TRACY          SUNNY     71  37  29 NE7       30.09F
SLAYTON        SUNNY     70  38  30 CALM      30.10F
$$
MNZ065>067-074>077-082>085-091>093-172000-
   South Central Minnesota

CITY           SKY/WX    TMP DP  RH WIND       PRES   REMARKS
MANKATO        SUNNY     72  43  35 NW8       30.06F
NEW ULM        SUNNY     72  39  30 NW7       30.06F
ST JAMES       SUNNY     75  39  27 NW9       30.07F
FAIRMONT       SUNNY     73  43  33 N5        30.07F
GLENCOE        SUNNY     71  43  37 W3        30.06F
FARIBAULT      SUNNY     73  45  35 W9G23     30.06S
OWATONNA       SUNNY     73  43  33 NW7       30.05F
WASECA         SUNNY     72  45  37 W5        30.07F
ALBERT LEA     SUNNY     75  43  31 NW6       30.05F
$$
MNZ078>079-086>088-094>096-172000-
   Southeast Minnesota

CITY           SKY/WX    TMP DP  RH WIND       PRES   REMARKS
ROCHESTER      MOSUNNY   74  46  36 NE8       30.05F
RED WING       MOSUNNY   75  43  31 NW9       30.02F
STANTON        MOSUNNY   74  44  34 N6        30.03F
DODGE CENTER   MOSUNNY   73  46  38 NW6       30.05F
WINONA         SUNNY     73  43  33 N5        30.03F
AUSTIN         SUNNY     73  46  38 CALM      30.05F
PRESTON        MOSUNNY   72  43  36 CALM      30.05F
$$
ABBREVIATIONS USED IN REMARKS
   TC - TEMPERATURES IN CELSIUS
  WCI - WIND CHILL INDEX
   HX - HEAT INDEX
  VSB - VISIBILITY
$$


USA.gov is the U.S. government's official web portal to all federal, state and local government web resources and services.